Simultaneous Nadir Overpasses (SNOs) Predictions

Prediction of SNOs between METOP-A and NOAA-19 Satellite Orbit:

Table of predicted SNOs for the next 14.0 days since TLE Epoch: 7/13/2012
Index Date (METOP-A) Time (METOP-A) METOP-A Lat,Lon Date (NOAA-19) Time (NOAA-19) NOAA-19 Lat,Lon Distance(km) Time Diff (sec)
1 07/14/2012 23:39:34 -73.46, -1.46 07/14/2012 23:38:23 -73.49, -2.97 47.83 71
2 07/15/2012 00:30:20 73.13, 165.14 07/15/2012 00:29:15 73.12, 165.13 1.12 65
3 07/15/2012 01:21:03 -73.09, -27.63 07/15/2012 01:20:20 -73.09, -27.57 1.87 43
4 07/15/2012 02:11:43 73.06, 139.64 07/15/2012 02:11:19 73.06, 139.74 3.38 24
5 07/15/2012 03:02:25 -73.07, -53.02 07/15/2012 03:02:25 -73.08, -53.07 2.31 0
6 07/15/2012 03:53:05 73.04, 114.25 07/15/2012 03:53:24 73.05, 114.24 2.06 19
7 07/15/2012 04:43:47 -73.05, -78.41 07/15/2012 04:44:29 -73.02, -78.46 3.09 42
8 07/15/2012 05:34:27 73.01, 88.86 07/15/2012 05:35:28 72.99, 88.85 1.99 61
9 07/15/2012 06:25:17 -72.62,-104.64 07/15/2012 06:26:27 -72.66,-103.22 47.52 70
10 07/24/2012 21:00:27 73.38,-141.87 07/24/2012 20:59:15 73.37,-142.90 32.83 72
11 07/24/2012 21:51:14 -73.14, 24.92 07/24/2012 21:50:14 -73.15, 24.85 2.54 60
12 07/24/2012 22:41:54 73.11,-167.81 07/24/2012 22:41:15 73.12,-167.84 1.91 39
13 07/24/2012 23:32:37 -73.06, -0.58 07/24/2012 23:32:18 -73.09, -0.55 3.19 19
14 07/25/2012 00:23:16 73.08, 166.80 07/25/2012 00:23:19 73.06, 166.76 2.45 3
15 07/25/2012 01:13:59 -73.04, -25.97 07/25/2012 01:14:22 -73.03, -25.94 1.09 23
16 07/25/2012 02:04:39 73.01, 141.30 07/25/2012 02:05:23 73.01, 141.37 2.22 44
17 07/25/2012 02:55:21 -73.02, -51.36 07/25/2012 02:56:27 -73.03, -51.45 3.17 66
18 07/25/2012 03:46:10 72.53, 114.96 07/25/2012 03:47:19 72.55, 116.82 61.97 69




NCC Satellite Simultaneous Nadir Overpasses (SNOs) Prediction Service
